Regional Weather Roundup
Issued by NWS

Home | Current Version | Previous Version | Graphics & Text | Print | Product List | Glossary On
Versions: 1 2 3 4 5 6 7 8 9 10 11 12 13 14 15 16 17 18 19 20 21 22 23 24 25 26 27 28 29 30 31 32 33 34 35 36 37 38 39 40 41 42 43 44 45 46 47 48 49 50
000
ASUS43 KBIS 281110
RWRND

NORTH DAKOTA REGIONAL WEATHER ROUNDUP
NATIONAL WEATHER SERVICE BISMARCK ND
500 AM CST SUN DEC 28 2014

NOTE: "FAIR" INDICATES FEW OR NO CLOUDS BELOW 12,000 FEET WITH NO
SIGNIFICANT WEATHER AND/OR OBSTRUCTIONS TO VISIBILITY.


NDZ001>003-009>011-017-281200-
NORTHWEST NORTH DAKOTA

CITY           SKY/WX    TMP DP  RH WIND       PRES   REMARKS
WILLISTON      CLOUDY    14  10  84 NE8       30.04R WCI   3
MINOT          CLOUDY    -1  -8  72 N7        30.11R WCI -14
MINOT AFB      CLOUDY    -4  -9  77 N10       30.13R WCI -21
$$

NDZ018>021-031>035-040>046-281200-
SOUTHWEST NORTH DAKOTA

CITY           SKY/WX    TMP DP  RH WIND       PRES   REMARKS
BISMARCK       LGT SNOW  17  14  88 E10       30.07R FOG     WCI   5
DICKINSON      CLOUDY    19  15  84 E7        29.94S WCI  10
GARRISON         N/A     10   6  84 E7        30.06S WCI  -1
HETTINGER ARPT CLEAR      4   0  83 CALM      29.95F
$$

NDZ004>008-012>016-024-026-027-054-281200-
NORTHEAST NORTH DAKOTA

CITY           SKY/WX    TMP DP  RH WIND       PRES   REMARKS
GRAND FORKS    CLEAR     -5 -10  79 N9        30.22R WCI -22
GRND FRKS AFB  PTCLDY    -4  -8  84 N9        30.21S WCI -20
DEVILS LAKE    CLOUDY     1  -6  71 NE8       30.13R WCI -12
$$

NDZ022-023-025-028>030-036>039-047>053-281200-
SOUTHEAST NORTH DAKOTA

CITY           SKY/WX    TMP DP  RH WIND       PRES   REMARKS
FARGO          CLOUDY     8   2  76 N18       30.15R WCI -11
JAMESTOWN      CLOUDY    10   5  80 NE13      30.10R WCI  -5
$$




USA.gov is the U.S. government's official web portal to all federal, state and local government web resources and services.